Time,TemperatureF,DewpointF,PressureIn,WindDirection,WindDirectionDegrees,WindSpeedMPH,WindSpeedGustMPH,Humidity,HourlyPrecipIn,Conditions,Clouds,dailyrainin,SoftwareType,DateUTC
2013-12-23 00:09:00,45.5,45.0,29.81,NNE,22,0.0,-999.0,98,-99.99,,,0.00,Acu-Link.com,2013-12-23 05:09:00,
2013-12-23 00:24:00,45.0,44.5,29.80,West,270,0.0,-999.0,98,-99.99,,,0.00,Acu-Link.com,2013-12-23 05:24:00,
2013-12-23 00:40:00,45.5,45.0,29.81,South,180,0.0,-999.0,98,-99.99,,,0.00,Acu-Link.com,2013-12-23 05:40:00,
2013-12-23 00:56:00,45.1,44.6,29.80,North,0,0.0,-999.0,98,-99.99,,,0.00,Acu-Link.com,2013-12-23 05:56:00,
2013-12-23 01:11:00,45.0,44.5,29.79,NNW,337,0.0,-999.0,98,-99.99,,,0.00,Acu-Link.com,2013-12-23 06:11:00,
2013-12-23 01:26:00,44.8,44.3,29.82,SW,225,0.0,-999.0,98,-99.99,,,0.00,Acu-Link.com,2013-12-23 06:26:00,
2013-12-23 01:41:00,45.0,44.5,29.83,NE,45,0.0,-999.0,98,-99.99,,,0.00,Acu-Link.com,2013-12-23 06:41:00,
2013-12-23 01:56:00,45.1,44.6,29.83,North,0,1.7,-999.0,98,-99.99,,,0.00,Acu-Link.com,2013-12-23 06:56:00,
2013-12-23 02:12:00,44.8,44.3,29.83,NW,315,0.0,-999.0,98,-99.99,,,0.00,Acu-Link.com,2013-12-23 07:12:00,
2013-12-23 02:27:00,45.3,44.8,29.83,South,180,1.7,-999.0,98,-99.99,,,0.00,Acu-Link.com,2013-12-23 07:27:00,
2013-12-23 02:42:00,45.3,44.8,29.83,NNW,337,0.0,-999.0,98,-99.99,,,0.00,Acu-Link.com,2013-12-23 07:42:00,
2013-12-23 02:57:00,45.1,44.6,29.83,ENE,67,0.0,-999.0,98,-99.99,,,0.00,Acu-Link.com,2013-12-23 07:57:00,
2013-12-23 03:12:00,45.0,44.5,29.84,NE,45,0.0,-999.0,98,-99.99,,,0.00,Acu-Link.com,2013-12-23 08:12:00,
2013-12-23 03:27:00,45.0,44.5,29.84,SSE,157,0.0,-999.0,98,-99.99,,,0.00,Acu-Link.com,2013-12-23 08:27:00,
2013-12-23 03:42:00,44.8,44.3,29.82,WSW,247,0.0,-999.0,98,-99.99,,,0.00,Acu-Link.com,2013-12-23 08:42:00,
2013-12-23 03:58:00,44.6,44.1,29.83,North,0,1.1,-999.0,98,-99.99,,,0.00,Acu-Link.com,2013-12-23 08:58:00,
2013-12-23 04:13:00,45.1,44.6,29.83,WNW,292,0.0,-999.0,98,-99.99,,,0.00,Acu-Link.com,2013-12-23 09:13:00,
2013-12-23 04:28:00,45.1,44.6,29.81,SW,225,0.0,-999.0,98,-99.99,,,0.00,Acu-Link.com,2013-12-23 09:28:00,
2013-12-23 04:43:00,45.7,45.2,29.82,SSW,202,0.0,-999.0,98,-99.99,,,0.00,Acu-Link.com,2013-12-23 09:43:00,
2013-12-23 04:58:00,45.5,45.0,29.82,ENE,67,0.0,-999.0,98,-99.99,,,0.00,Acu-Link.com,2013-12-23 09:58:00,
2013-12-23 05:13:00,45.3,44.8,29.82,SW,225,0.0,-999.0,98,-99.99,,,0.00,Acu-Link.com,2013-12-23 10:13:00,
2013-12-23 05:29:00,45.5,45.0,29.82,South,180,0.0,-999.0,98,-99.99,,,0.00,Acu-Link.com,2013-12-23 10:29:00,
2013-12-23 05:44:00,45.3,44.8,29.82,West,270,0.0,-999.0,98,-99.99,,,0.00,Acu-Link.com,2013-12-23 10:44:00,
2013-12-23 05:59:00,45.1,44.6,29.82,NNW,337,0.0,-999.0,98,-99.99,,,0.00,Acu-Link.com,2013-12-23 10:59:00,
2013-12-23 06:14:00,45.1,44.6,29.84,South,180,0.0,-999.0,98,-99.99,,,0.00,Acu-Link.com,2013-12-23 11:14:00,
2013-12-23 06:29:00,45.1,44.6,29.84,NNW,337,0.0,-999.0,98,-99.99,,,0.00,Acu-Link.com,2013-12-23 11:29:00,
2013-12-23 06:44:00,45.0,44.5,29.84,South,180,0.0,-999.0,98,-99.99,,,0.00,Acu-Link.com,2013-12-23 11:44:00,
2013-12-23 06:59:00,45.1,44.6,29.86,SE,135,0.0,-999.0,98,-99.99,,,0.00,Acu-Link.com,2013-12-23 11:59:00,
2013-12-23 07:14:00,45.5,45.0,29.86,ESE,112,2.2,-999.0,98,-99.99,,,0.00,Acu-Link.com,2013-12-23 12:14:00,
2013-12-23 07:30:00,45.3,44.8,29.87,NE,45,0.0,-999.0,98,-99.99,,,0.01,Acu-Link.com,2013-12-23 12:30:00,
2013-12-23 07:45:00,45.3,44.8,29.87,SSE,157,0.0,-999.0,98,-99.99,,,0.01,Acu-Link.com,2013-12-23 12:45:00,
2013-12-23 08:00:00,45.1,44.6,29.86,WSW,247,0.0,-999.0,98,-99.99,,,0.02,Acu-Link.com,2013-12-23 13:00:00,
2013-12-23 08:15:00,45.1,44.6,29.87,WNW,292,0.0,-999.0,98,-99.99,,,0.02,Acu-Link.com,2013-12-23 13:15:00,
2013-12-23 08:30:00,45.1,44.6,29.85,West,270,0.0,-999.0,98,-99.99,,,0.02,Acu-Link.com,2013-12-23 13:30:00,
2013-12-23 08:45:00,46.0,45.5,29.86,SSE,157,0.0,-999.0,98,-99.99,,,0.02,Acu-Link.com,2013-12-23 13:45:00,
2013-12-23 09:00:00,46.0,45.5,29.87,ESE,112,0.0,-999.0,98,-99.99,,,0.02,Acu-Link.com,2013-12-23 14:00:00,
2013-12-23 09:15:00,45.9,45.4,29.89,West,270,0.0,-999.0,98,-99.99,,,0.02,Acu-Link.com,2013-12-23 14:15:00,
2013-12-23 09:31:00,45.9,45.4,29.89,West,270,0.0,-999.0,98,-99.99,,,0.02,Acu-Link.com,2013-12-23 14:31:00,
2013-12-23 09:46:00,46.2,45.7,29.89,SE,135,0.0,-999.0,98,-99.99,,,0.02,Acu-Link.com,2013-12-23 14:46:00,
2013-12-23 10:01:00,46.6,46.1,29.89,SSE,157,0.0,-999.0,98,-99.99,,,0.02,Acu-Link.com,2013-12-23 15:01:00,
2013-12-23 10:16:00,46.9,46.4,29.90,NNW,337,0.0,-999.0,98,-99.99,,,0.02,Acu-Link.com,2013-12-23 15:16:00,
2013-12-23 10:31:00,47.8,47.3,29.90,West,270,1.1,-999.0,98,-99.99,,,0.02,Acu-Link.com,2013-12-23 15:31:00,
2013-12-23 10:46:00,48.2,47.7,29.89,WNW,292,0.0,-999.0,98,-99.99,,,0.02,Acu-Link.com,2013-12-23 15:46:00,
2013-12-23 11:02:00,48.9,48.4,29.91,West,270,2.2,-999.0,98,-99.99,,,0.02,Acu-Link.com,2013-12-23 16:02:00,
2013-12-23 11:17:00,48.6,48.1,29.91,North,0,2.7,-999.0,98,-99.99,,,0.02,Acu-Link.com,2013-12-23 16:17:00,
2013-12-23 11:32:00,48.9,48.4,29.92,South,180,2.2,-999.0,98,-99.99,,,0.02,Acu-Link.com,2013-12-23 16:32:00,
2013-12-23 11:47:00,49.5,48.4,29.91,SSE,157,2.2,-999.0,96,-99.99,,,0.02,Acu-Link.com,2013-12-23 16:47:00,
2013-12-23 12:02:00,49.8,47.3,29.90,West,270,3.7,-999.0,91,-99.99,,,0.02,Acu-Link.com,2013-12-23 17:02:00,
2013-12-23 12:17:00,50.0,47.5,29.89,South,180,2.7,-999.0,91,-99.99,,,0.02,Acu-Link.com,2013-12-23 17:17:00,
2013-12-23 12:32:00,50.0,46.9,29.90,West,270,5.3,-999.0,89,-99.99,,,0.02,Acu-Link.com,2013-12-23 17:32:00,
2013-12-23 12:47:00,50.0,46.6,29.90,South,180,1.1,-999.0,88,-99.99,,,0.03,Acu-Link.com,2013-12-23 17:47:00,
2013-12-23 13:02:00,50.0,46.6,29.90,WSW,247,2.7,-999.0,88,-99.99,,,0.03,Acu-Link.com,2013-12-23 18:02:00,
2013-12-23 13:33:00,48.9,45.2,29.90,SW,225,2.2,-999.0,87,-99.99,,,0.03,Acu-Link.com,2013-12-23 18:33:00,
2013-12-23 13:48:00,48.9,43.7,29.92,SW,225,3.2,-999.0,82,-99.99,,,0.03,Acu-Link.com,2013-12-23 18:48:00,
2013-12-23 14:03:00,48.6,43.4,29.93,WSW,247,2.7,-999.0,82,-99.99,,,0.03,Acu-Link.com,2013-12-23 19:03:00,
2013-12-23 14:18:00,46.9,42.3,29.94,West,270,6.3,-999.0,84,-99.99,,,0.03,Acu-Link.com,2013-12-23 19:18:00,
2013-12-23 14:33:00,45.9,41.0,29.95,SSW,202,3.2,-999.0,83,-99.99,,,0.03,Acu-Link.com,2013-12-23 19:33:00,
2013-12-23 14:48:00,44.8,39.0,29.97,SSW,202,2.7,-999.0,80,-99.99,,,0.03,Acu-Link.com,2013-12-23 19:48:00,
2013-12-23 15:03:00,44.1,38.3,29.99,West,270,5.8,-999.0,80,-99.99,,,0.03,Acu-Link.com,2013-12-23 20:03:00,
2013-12-23 15:18:00,43.7,38.3,30.00,West,270,4.7,-999.0,81,-99.99,,,0.03,Acu-Link.com,2013-12-23 20:18:00,
2013-12-23 15:34:00,42.6,36.9,30.02,WSW,247,5.3,-999.0,80,-99.99,,,0.03,Acu-Link.com,2013-12-23 20:34:00,
2013-12-23 15:49:00,42.1,36.1,30.03,West,270,8.9,-999.0,79,-99.99,,,0.03,Acu-Link.com,2013-12-23 20:49:00,
2013-12-23 16:04:00,41.4,35.4,30.05,West,270,6.8,-999.0,79,-99.99,,,0.03,Acu-Link.com,2013-12-23 21:04:00,
2013-12-23 16:19:00,41.2,34.5,30.06,SW,225,6.8,-999.0,77,-99.99,,,0.03,Acu-Link.com,2013-12-23 21:19:00,
2013-12-23 16:35:00,40.5,34.5,30.07,ENE,67,9.4,-999.0,79,-99.99,,,0.03,Acu-Link.com,2013-12-23 21:35:00,
2013-12-23 16:50:00,39.9,33.6,30.08,WSW,247,3.2,-999.0,78,-99.99,,,0.03,Acu-Link.com,2013-12-23 21:50:00,
2013-12-23 17:05:00,39.4,33.1,30.07,West,270,6.3,-999.0,78,-99.99,,,0.03,Acu-Link.com,2013-12-23 22:05:00,
2013-12-23 17:21:00,39.2,32.9,30.08,NW,315,4.7,-999.0,78,-99.99,,,0.03,Acu-Link.com,2013-12-23 22:21:00,
2013-12-23 17:36:00,38.8,32.5,30.07,SW,225,4.2,-999.0,78,-99.99,,,0.03,Acu-Link.com,2013-12-23 22:36:00,
2013-12-23 17:51:00,38.7,32.4,30.08,West,270,4.7,-999.0,78,-99.99,,,0.03,Acu-Link.com,2013-12-23 22:51:00,
2013-12-23 18:06:00,38.7,31.8,30.07,West,270,2.7,-999.0,76,-99.99,,,0.03,Acu-Link.com,2013-12-23 23:06:00,
2013-12-23 18:21:00,38.3,32.1,30.07,South,180,2.2,-999.0,78,-99.99,,,0.03,Acu-Link.com,2013-12-23 23:21:00,
2013-12-23 18:36:00,37.9,31.3,30.08,WSW,247,1.1,-999.0,77,-99.99,,,0.03,Acu-Link.com,2013-12-23 23:36:00,
2013-12-23 18:52:00,37.4,31.2,30.08,WSW,247,1.7,-999.0,78,-99.99,,,0.03,Acu-Link.com,2013-12-23 23:52:00,
2013-12-23 19:07:00,37.4,31.5,30.09,WSW,247,1.1,-999.0,79,-99.99,,,0.03,Acu-Link.com,2013-12-24 00:07:00,
2013-12-23 19:22:00,37.0,30.5,30.09,WNW,292,1.7,-999.0,77,-99.99,,,0.03,Acu-Link.com,2013-12-24 00:22:00,
2013-12-23 19:37:00,37.0,30.8,30.09,SW,225,0.0,-999.0,78,-99.99,,,0.03,Acu-Link.com,2013-12-24 00:37:00,
2013-12-23 19:52:00,36.5,30.6,30.09,WSW,247,2.7,-999.0,79,-99.99,,,0.03,Acu-Link.com,2013-12-24 00:52:00,
2013-12-23 20:07:00,36.1,29.9,30.09,SW,225,1.7,-999.0,78,-99.99,,,0.03,Acu-Link.com,2013-12-24 01:07:00,
2013-12-23 20:22:00,35.8,28.7,30.10,West,270,5.3,-999.0,75,-99.99,,,0.03,Acu-Link.com,2013-12-24 01:22:00,
2013-12-23 20:37:00,35.1,28.6,30.10,West,270,2.7,-999.0,77,-99.99,,,0.03,Acu-Link.com,2013-12-24 01:37:00,
2013-12-23 20:52:00,35.1,28.0,30.11,West,270,1.1,-999.0,75,-99.99,,,0.03,Acu-Link.com,2013-12-24 01:52:00,
2013-12-23 21:07:00,34.9,28.1,30.11,South,180,1.7,-999.0,76,-99.99,,,0.03,Acu-Link.com,2013-12-24 02:07:00,
2013-12-23 21:23:00,35.2,27.8,30.11,SW,225,1.7,-999.0,74,-99.99,,,0.03,Acu-Link.com,2013-12-24 02:23:00,
2013-12-23 21:38:00,35.2,27.4,30.11,NW,315,1.1,-999.0,73,-99.99,,,0.03,Acu-Link.com,2013-12-24 02:38:00,
2013-12-23 21:53:00,35.1,27.7,30.10,WSW,247,1.7,-999.0,74,-99.99,,,0.03,Acu-Link.com,2013-12-24 02:53:00,
2013-12-23 22:08:00,35.4,26.6,30.11,West,270,1.7,-999.0,70,-99.99,,,0.03,Acu-Link.com,2013-12-24 03:08:00,
2013-12-23 22:23:00,34.9,25.8,30.10,SSE,157,2.7,-999.0,69,-99.99,,,0.03,Acu-Link.com,2013-12-24 03:23:00,
2013-12-23 22:38:00,34.2,24.8,30.10,NW,315,2.2,-999.0,68,-99.99,,,0.03,Acu-Link.com,2013-12-24 03:38:00,
2013-12-23 22:54:00,34.0,24.6,30.11,NW,315,2.7,-999.0,68,-99.99,,,0.03,Acu-Link.com,2013-12-24 03:54:00,
2013-12-23 23:09:00,34.0,24.9,30.11,West,270,2.2,-999.0,69,-99.99,,,0.03,Acu-Link.com,2013-12-24 04:09:00,
2013-12-23 23:24:00,33.6,25.9,30.11,West,270,1.7,-999.0,73,-99.99,,,0.03,Acu-Link.com,2013-12-24 04:24:00,
2013-12-23 23:39:00,33.1,26.7,30.11,NNW,337,0.0,-999.0,77,-99.99,,,0.03,Acu-Link.com,2013-12-24 04:39:00,
2013-12-23 23:54:00,32.7,26.0,30.12,NW,315,0.0,-999.0,76,-99.99,,,0.03,Acu-Link.com,2013-12-24 04:54:00,